Change the Weather History Date:

Tuesday, February 5, 2013

  Actual Average Record
Temperature  
Mean Temperature 20 °F -  
Max Temperature 33 °F 23 °F 48 °F (2005)
Min Temperature 8 °F 6 °F -18 °F (2007)
Degree Days  
Heating Degree Days 44    
Moisture  
Dew Point 15 °F    
Average Humidity 83    
Maximum Humidity 93    
Minimum Humidity 73    
Precipitation  
Precipitation 0.00 in - - ()
Sea Level Pressure  
Sea Level Pressure 29.89 in    
Wind  
Wind Speed 10 mph (NW)    
Max Wind Speed 24 mph    
Max Gust Speed 26 mph    
Visibility 8 miles    
Events Snow    
Averages and records for this station are not official NWS values.
T = Trace of Precipitation, MM = Missing Value Source: NWS Daily Summary

Daily Weather History Graph

Daily Weather History Graph

Search for Another Location

Airport or City:

Trip Planner

Search our weather history database for the weather conditions in past years. The results will help you decide how hot, cold, wet, or windy it might be!

Date:

Astronomy

Feb. 05, 2013 Rise Set
Actual Time 7:39 AM CST 5:37 PM CST
Civil Twilight 7:08 AM CST 6:08 PM CST
Nautical Twilight 6:33 AM CST 6:43 PM CST
Astronomical Twilight 5:58 AM CST 7:18 PM CST
Moon 3:27 AM CST (2/5) 12:50 PM CST (2/5)
Length of Visible Light 11h 00m
Length of Day
9h 58m
Waning Crescent, 26% of the Moon is Illuminated
Feb 5
Waning Crescent
Feb 10
New
Feb 17
First Quarter
Feb 25
Full
Mar 4
Last Quarter

Hourly Weather History & Observations

Time (CST) Temp. Windchill Dew Point Humidity Pressure Visibility Wind Dir Wind Speed Gust Speed Precip Events Conditions
12:13 AM 21.2 °F 12.6 °F 17.6 °F 86% 29.65 in 10.0 mi South 6.9 mph - N/A   Clear
12:33 AM 21.2 °F 11.7 °F 19.4 °F 93% 29.64 in 10.0 mi SSW 8.1 mph - N/A   Clear
12:53 AM 23.0 °F 13.9 °F 19.4 °F 86% 29.65 in 10.0 mi SW 8.1 mph - N/A   Clear
1:15 AM 24.8 °F 14.0 °F 19.4 °F 80% 29.64 in 10.0 mi WSW 11.5 mph - N/A   Scattered Clouds
1:34 AM 24.8 °F 14.0 °F 21.2 °F 86% 29.64 in 10.0 mi WSW 11.5 mph - N/A   Mostly Cloudy
1:53 AM 26.6 °F 15.7 °F 21.2 °F 80% 29.64 in 10.0 mi WSW 12.7 mph - N/A   Overcast
2:13 AM 26.6 °F 16.8 °F 23.0 °F 86% 29.65 in 10.0 mi West 10.4 mph - N/A   Mostly Cloudy
2:33 AM 26.6 °F 19.1 °F 24.8 °F 93% 29.66 in 7.0 mi West 6.9 mph - N/A Snow Light Snow
2:53 AM 28.4 °F 21.2 °F 24.8 °F 86% 29.65 in 2.0 mi West 6.9 mph - N/A Snow Light Snow
3:13 AM 28.4 °F 21.2 °F 26.6 °F 93% 29.65 in 3.0 mi West 6.9 mph - N/A Snow Light Snow
3:33 AM 30.2 °F 24.3 °F 28.4 °F 93% 29.65 in 2.5 mi West 5.8 mph - N/A Snow Light Snow
3:53 AM 30.2 °F 23.4 °F 28.4 °F 93% 29.65 in 4.0 mi West 6.9 mph - N/A Snow Light Snow
4:13 AM 30.2 °F 23.4 °F 28.4 °F 93% 29.66 in 7.0 mi West 6.9 mph - N/A   Overcast
4:33 AM 30.2 °F 22.6 °F 28.4 °F 93% 29.67 in 7.0 mi West 8.1 mph - N/A Snow Light Snow
4:53 AM 30.2 °F 21.9 °F 28.4 °F 93% 29.68 in 5.0 mi West 9.2 mph - N/A Snow Light Snow
5:13 AM 30.2 °F 21.3 °F 28.4 °F 93% 29.69 in 5.0 mi WNW 10.4 mph - N/A Snow Light Snow
5:33 AM 33.8 °F 25.3 °F 30.2 °F 87% 29.69 in 5.0 mi NW 11.5 mph - N/A Snow Light Snow
5:53 AM 33.8 °F 25.3 °F 30.2 °F 87% 29.69 in 5.0 mi NW 11.5 mph - N/A Snow Light Snow
6:13 AM 33.8 °F 23.9 °F 30.2 °F 87% 29.71 in 10.0 mi NNW 15.0 mph - N/A   Overcast
6:33 AM 32.0 °F 23.0 °F 30.2 °F 93% 29.72 in 7.0 mi NNW 11.5 mph 15.0 mph N/A Snow Light Snow
6:53 AM 32.0 °F 23.6 °F 28.4 °F 87% 29.72 in 10.0 mi NNW 10.4 mph 13.8 mph N/A Snow Light Snow
7:13 AM 30.2 °F 20.2 °F 28.4 °F 93% 29.74 in 10.0 mi NW 12.7 mph - N/A   Overcast
7:33 AM 30.2 °F 17.4 °F 26.6 °F 86% 29.76 in 10.0 mi NNW 20.7 mph 25.3 mph N/A   Overcast
7:53 AM 30.2 °F 18.5 °F 26.6 °F 86% 29.77 in 7.0 mi NNW 17.3 mph - N/A   Overcast
8:14 AM 30.2 °F 18.9 °F 26.6 °F 86% 29.78 in 10.0 mi NNW 16.1 mph - N/A   Overcast
8:33 AM 26.6 °F 13.1 °F 23.0 °F 86% 29.81 in 2.5 mi NNW 19.6 mph - N/A   Overcast
8:54 AM 21.2 °F 6.4 °F 17.6 °F 86% 29.82 in 2.5 mi NNW 18.4 mph - N/A Snow Light Snow
9:13 AM 19.4 °F 2.1 °F 15.8 °F 86% 29.84 in 2.0 mi North 24.2 mph - N/A   Overcast
9:33 AM 19.4 °F 4.5 °F 15.8 °F 86% 29.86 in 4.0 mi NNW 17.3 mph - N/A   Overcast
9:54 AM 17.6 °F 2.2 °F 14.0 °F 86% 29.89 in 2.5 mi NNW 17.3 mph 26.5 mph N/A   Overcast
10:14 AM 17.6 °F 0.9 °F 14.0 °F 86% 29.90 in 2.5 mi NNW 20.7 mph 24.2 mph N/A   Overcast
10:33 AM 17.6 °F 0.1 °F 14.0 °F 86% 29.91 in 1.2 mi NNW 23.0 mph 26.5 mph N/A Snow Light Snow
10:54 AM 17.6 °F 0.1 °F 12.2 °F 79% 29.93 in 1.2 mi NNW 23.0 mph - N/A   Haze
11:14 AM 17.6 °F 2.2 °F 12.2 °F 79% 29.94 in 4.0 mi NNW 17.3 mph 24.2 mph N/A   Haze
11:33 AM 17.6 °F 3.7 °F 12.2 °F 79% 29.95 in 7.0 mi NNW 13.8 mph - N/A   Overcast
11:53 AM 17.6 °F 3.7 °F 12.2 °F 79% 29.96 in 10.0 mi NW 13.8 mph - N/A   Overcast
12:13 PM 17.6 °F 3.7 °F 12.2 °F 79% 29.98 in 10.0 mi NNW 13.8 mph - N/A   Overcast
12:33 PM 17.6 °F 3.2 °F 10.4 °F 73% 29.99 in 10.0 mi NNW 15.0 mph - N/A   Overcast
12:53 PM 17.6 °F 2.2 °F 10.4 °F 73% 29.99 in 10.0 mi NW 17.3 mph - N/A   Overcast
1:13 PM 15.8 °F -0.6 °F 10.4 °F 79% 30.00 in 10.0 mi NW 18.4 mph 23.0 mph N/A   Overcast
1:34 PM 15.8 °F 0.3 °F 10.4 °F 79% 30.00 in 10.0 mi NW 16.1 mph - N/A   Overcast
1:54 PM 15.8 °F -0.6 °F 8.6 °F 73% 30.00 in 10.0 mi NW 18.4 mph - N/A   Mostly Cloudy
2:13 PM 15.8 °F 0.3 °F 10.4 °F 79% 29.99 in 10.0 mi NW 16.1 mph - N/A   Scattered Clouds
2:34 PM 15.8 °F -0.2 °F 8.6 °F 73% 30.00 in 10.0 mi NW 17.3 mph - N/A   Clear
2:53 PM 15.8 °F -0.2 °F 8.6 °F 73% 30.00 in 10.0 mi NW 17.3 mph - N/A   Clear
3:13 PM 15.8 °F 0.3 °F 8.6 °F 73% 30.01 in 10.0 mi NW 16.1 mph - N/A   Clear
3:34 PM 15.8 °F 0.9 °F 8.6 °F 73% 30.02 in 10.0 mi NW 15.0 mph - N/A   Clear
3:53 PM 12.2 °F -1.8 °F 6.8 °F 79% 30.02 in 10.0 mi NW 11.5 mph - N/A   Clear
4:13 PM 12.2 °F 0.7 °F 6.8 °F 79% 30.03 in 10.0 mi NW 8.1 mph - N/A   Clear
4:34 PM 12.2 °F -1.0 °F 6.8 °F 79% 30.03 in 10.0 mi NW 10.4 mph - N/A   Clear
4:53 PM 12.2 °F 0.7 °F 6.8 °F 79% 30.03 in 10.0 mi NW 8.1 mph - N/A   Clear
5:13 PM 10.4 °F -1.5 °F 6.8 °F 85% 30.04 in 10.0 mi WNW 8.1 mph - N/A   Clear
5:53 PM 8.6 °F 0.1 °F 5.0 °F 85% 30.05 in 10.0 mi WNW 4.6 mph - N/A   Clear
6:13 PM 8.6 °F 0.1 °F 3.2 °F 79% 30.05 in 10.0 mi NW 4.6 mph - N/A   Clear
6:33 PM 8.6 °F - 5.0 °F 85% 30.06 in 10.0 mi Calm Calm - N/A   Mostly Cloudy
6:53 PM 10.4 °F - 6.8 °F 85% 30.05 in 10.0 mi Calm Calm - N/A   Overcast
7:13 PM 10.4 °F 4.0 °F 6.8 °F 85% 30.06 in 10.0 mi North 3.5 mph - N/A   Overcast
7:33 PM 10.4 °F 0.8 °F 6.8 °F 85% 30.05 in 10.0 mi North 5.8 mph - N/A   Overcast
7:53 PM 12.2 °F 4.3 °F 6.8 °F 79% 30.05 in 10.0 mi North 4.6 mph - N/A   Overcast
8:13 PM 12.2 °F 6.1 °F 6.8 °F 79% 30.06 in 10.0 mi NNW 3.5 mph - N/A   Overcast
8:34 PM 12.2 °F 2.9 °F 6.8 °F 79% 30.03 in 10.0 mi NE 5.8 mph - N/A   Overcast
8:53 PM 12.2 °F - 6.8 °F 79% 30.05 in 10.0 mi Calm Calm - N/A   Overcast
9:13 PM 12.2 °F - 6.8 °F 79% 30.05 in 10.0 mi Calm Calm - N/A   Overcast
9:33 PM 12.2 °F - 6.8 °F 79% 30.05 in 10.0 mi Calm Calm - N/A   Overcast
9:53 PM 12.2 °F - 6.8 °F 79% 30.06 in 10.0 mi Calm Calm - N/A   Overcast
10:13 PM 12.2 °F - 6.8 °F 79% 30.06 in 10.0 mi Calm Calm - N/A   Overcast
10:33 PM 12.2 °F - 6.8 °F 79% 30.06 in 10.0 mi Calm Calm - N/A   Overcast
10:53 PM 12.2 °F - 6.8 °F 79% 30.06 in 10.0 mi Calm Calm - N/A   Overcast
11:13 PM 10.4 °F - 6.8 °F 85% 30.06 in 10.0 mi Calm Calm - N/A   Mostly Cloudy
11:33 PM 10.4 °F 4.0 °F 6.8 °F 85% 30.07 in 10.0 mi SSW 3.5 mph - N/A   Scattered Clouds
11:53 PM 10.4 °F - 6.8 °F 85% 30.06 in 10.0 mi Calm Calm - N/A   Mostly Cloudy